#timestamp,LO_Frequency,Hit,StdDev 
1589281215.8,286047002.0,N
1589281235.6,286047001.5,N
1589281255.5,286047002.5,N
1589281275.3,286047002.3,N
1589281295.2,286046998.4,N
1589281315.0,286047000.1,N
1589281315.9,286047000.1,N
1589281335.8,286047002.1,N
1589281355.6,286047002.2,N
1589281375.4,286047002.0,N
1589281395.3,286046999.7,N
1589281415.1,286046999.9,N
1589281435.9,286047000.0,N
1589281455.7,286047001.0,N
1589281475.5,286047001.2,N
1589281495.4,286047000.1,N
1589281515.2,286047003.6,N
1589281535.0,286047003.7,N
1589281536.0,286047003.7,N
1589281555.8,286047005.9,Y
1589281575.6,286047002.8,P
1589281595.5,286047004.3,P
1589281615.3,286047000.4,N
1589281635.2,286047000.4,N
1589281655.9,286046998.4,N
1589281675.7,286047001.0,N
1589281695.6,286047000.3,N
1589281715.4,286047004.3,N
1589281735.3,286046999.8,N
1589281755.1,286047002.5,N
1589281756.0,286047002.5,N
1589281775.8,286047001.5,N
1589281795.7,286047000.2,N
1589281815.5,286047002.7,N
1589281835.3,286047001.4,N
1589281855.2,286047000.2,N
1589281875.0,286047001.0,N
1589281875.9,286047001.0,N
1589281895.8,286047000.5,N
1589281915.6,286046999.6,N
1589281935.4,286046996.7,N
1589281955.3,286046999.4,N
1589281975.1,286046997.1,N
1589281995.9,286046996.9,N
1589282015.7,286046997.3,N
1589282035.5,286046996.9,N
1589282055.4,286046997.3,N
1589282075.2,286046997.8,N
1589282095.0,286046995.4,N
1589282096.0,286046995.4,N
1589282115.8,286046996.1,N
1589282135.6,286046995.5,N
1589282155.5,286046993.4,N
1589282175.3,286046994.1,N
1589282195.1,286046994.0,N
1589282215.9,286046994.6,N
1589282235.7,286046994.0,N
1589282255.6,286046994.2,N
1589282275.4,286046993.6,N
1589282295.2,286046990.5,Y
1589282315.1,286046995.7,P
1589282316.0,286046995.7,P
1589282335.8,286046996.4,P
1589282355.7,286046993.5,Y
1589282375.5,286046997.0,P
1589282395.3,286046998.8,P
1589282415.2,286046996.8,P
1589282435.0,286046997.4,N
1589282435.9,286046997.4,Y
1589282455.8,286047000.1,P
1589282475.6,286047000.9,N
1589282495.4,286047000.5,N
1589282515.3,286046999.0,N
1589282535.1,286046999.1,N
1589282555.9,286046998.8,N
1589282575.7,286046996.9,N
1589282595.5,286046997.8,N
1589282615.4,286046997.0,N
1589282635.2,286046997.5,N
1589282655.0,286046995.3,Y
1589282655.9,286046995.3,P
1589282675.8,286046998.4,N
1589282695.6,286047002.0,N
1589282715.5,286047005.2,N
1589282735.3,286047007.6,N
1589282755.1,286046999.9,N
1589282775.9,286047000.3,N
1589282795.7,286047000.0,N
1589282815.6,286047002.4,N
1589282835.4,286046999.7,N
1589282855.2,286047011.9,Y
1589282875.1,286046998.8,P
1589282876.0,286046998.8,N
1589282895.8,286047000.0,N
1589282915.7,286047001.3,N
1589282935.5,286047003.3,Y
1589282955.3,286047001.7,P
1589282975.2,286046998.1,N
1589282995.0,286047001.5,N
1589282995.9,286047001.5,N
1589283015.8,286047005.6,Y
1589283035.6,286047005.6,P
1589283055.4,286047003.7,N
1589283075.3,286047003.8,N
1589283095.1,286047003.6,N
1589283115.8,286047002.6,N
1589283135.7,286047004.0,N
1589283155.5,286047003.4,N
1589283175.4,286047003.0,N
1589283195.2,286047003.4,N
1589283215.0,286047007.4,Y
1589283215.9,286047007.4,P
1589283235.8,286046998.8,N
1589283255.6,286047000.4,N
1589283275.5,286047002.4,N
1589283295.3,286047000.0,N
1589283315.1,286046998.3,N
1589283335.9,286046998.2,N
1589283355.7,286046998.4,N
1589283375.6,286047001.1,N
1589283395.4,286047001.9,N
1589283415.2,286047001.0,N
1589283435.1,286046996.6,N
1589283436.0,286046996.6,N
1589283455.8,286046999.3,N
1589283475.7,286046996.5,N
1589283495.5,286046998.4,N
1589283515.3,286047000.5,N
1589283535.2,286047000.1,N
1589283555.0,286047002.7,N
1589283555.9,286047002.7,N
1589283575.8,286047000.9,N
1589283595.6,286047000.6,N
1589283615.4,286047002.4,N
1589283635.3,286047000.1,N
1589283655.1,286047002.6,N
1589283675.9,286047002.4,N
1589283695.7,286047000.5,N
1589283715.5,286047004.3,N
1589283735.4,286047003.8,N
1589283755.2,286047001.4,N
1589283775.0,286047003.9,N
1589283775.9,286047003.9,N
1589283795.8,286047001.4,N
1589283815.6,286047001.3,N
1589283835.5,286047004.3,N
1589283855.3,286047001.9,N
1589283875.1,286046995.0,N
1589283895.9,286047001.4,N
1589283915.7,286047001.5,N
1589283935.6,286046999.8,N
1589283955.4,286046999.9,N
1589283975.2,286047000.3,N
1589283995.1,286047001.5,N
1589283996.0,286047001.5,N
1589284015.8,286047004.2,N
1589284035.7,286047000.2,N
1589284055.5,286046998.2,N
1589284075.3,286046998.8,N
1589284095.2,286046998.2,N
1589284115.0,286047000.1,N
1589284115.9,286047000.1,N
1589284135.7,286047003.1,N
1589284155.6,286047006.0,N
1589284175.4,286047000.2,N
1589284195.3,286047000.6,N
1589284215.1,286047004.4,N
1589284216.0,286047004.4,N
1589284235.8,286047005.6,N
1589284255.7,286047005.5,N
1589284275.5,286047003.4,N
1589284295.4,286047005.3,N
1589284315.2,286047002.9,N
1589284335.0,286047002.9,N
1589284335.9,286047002.9,N
1589284355.8,286047002.1,N
1589284375.6,286047001.6,N
1589284395.4,286047002.0,N
1589284415.3,286047002.2,N
1589284435.1,286047004.2,N
1589284455.9,286047003.8,N
1589284475.7,286047005.6,N
1589284495.5,286047005.6,N
1589284515.4,286047001.3,N
1589284535.2,286047002.5,N
1589284555.1,286047004.3,N
1589284556.0,286047004.3,N
1589284575.8,286047002.4,N
1589284595.6,286047000.1,N
1589284615.5,286047001.6,N
1589284635.3,286047001.3,N
1589284655.1,286047003.8,N
1589284675.9,286047001.6,N
1589284695.7,286047002.0,N
1589284715.6,286047000.2,N
1589284735.4,286047002.6,N
1589284755.2,286047001.4,N
1589284775.1,286047003.9,N
1589284776.0,286047003.9,N
1589284795.8,286047004.3,N
